Meridian, MS

3:03 AM CDT on October 21, 2019 (GMT -0500)
Key

Weather History for KMEI - August, 2019

Change the Weather History Date:

Thursday, August 8, 2019

  Actual Average Record
Temperature  
Mean Temperature 86 °F 81 °F  
Max Temperature 96 °F 92 °F 105 °F (1935)
Min Temperature 75 °F 70 °F 58 °F (1989)
Degree Days  
Heating Degree Days 0 0  
Month to date heating degree days 0 0  
Since 1 June heating degree days 0 0  
Since 1 July heating degree days 0 0  
Cooling Degree Days 21 16  
Month to date cooling degree days 151 128  
Year to date cooling degree days 1666 1275  
Since 1 June cooling degree days 1170 992  
Growing Degree Days 35 (Base 50)    
Moisture  
Dew Point 75 °F    
Average Humidity 75    
Maximum Humidity 94    
Minimum Humidity 56    
Precipitation  
Precipitation 0.00 in 0.14 in 3.12 in (1932)
Month to date precipitation 2.10 1.18  
Year to date precipitation 40.68 36.15  
Sea Level Pressure  
Sea Level Pressure 29.94 in    
Wind  
Wind Speed 3 mph (WSW)    
Max Wind Speed 13 mph    
Max Gust Speed 17 mph    
Visibility 10 miles    
Events Thunderstorm    
T = Trace of Precipitation, MM = Missing Value Source: NWS Daily Summary

Daily Weather History Graph

Daily Weather History Graph

Search for Another Location

Airport or City:

Astronomy

Aug. 08, 2019 Rise Set
Actual Time 6:14 AM CDT 7:46 PM CDT
Civil Twilight 5:47 AM CDT 8:12 PM CDT
Nautical Twilight 5:16 AM CDT 8:44 PM CDT
Astronomical Twilight 4:43 AM CDT 9:17 PM CDT
Moon 2:22 PM CDT (8/8) 12:34 AM CDT (8/8)
Length of Visible Light 14h 24m
Length of Day
13h 32m
First Quarter, 60% of the Moon is Illuminated
Aug 8
First Quarter
Aug 15
Full
Aug 23
Last Quarter
Aug 30
New
Sep 5
First Quarter

Hourly Weather History & Observations

Time (CDT) Temp. Heat Index Dew Point Humidity Pressure Visibility Wind Dir Wind Speed Gust Speed Precip Events Conditions
12:58 AM 77.0 °F - 73.0 °F 88% 29.91 in 10.0 mi Calm Calm - N/A   Clear
1:58 AM 77.0 °F - 73.9 °F 90% 29.92 in 10.0 mi Calm Calm - N/A   Clear
2:58 AM 75.9 °F - 73.0 °F 91% 29.91 in 10.0 mi Calm Calm - N/A   Clear
3:58 AM 75.9 °F - 73.0 °F 91% 29.92 in 10.0 mi Calm Calm - N/A   Mostly Cloudy
4:58 AM 75.9 °F - 73.0 °F 91% 29.94 in 10.0 mi South 3.5 mph - N/A   Partly Cloudy
5:58 AM 75.0 °F - 73.0 °F 94% 29.94 in 10.0 mi SSW 4.6 mph - N/A   Clear
6:58 AM 75.9 °F - 73.0 °F 91% 29.95 in 10.0 mi SSW 4.6 mph - N/A   Clear
7:58 AM 79.0 °F - 75.0 °F 88% 29.96 in 10.0 mi Calm Calm - N/A   Clear
8:58 AM 86.0 °F 96.9 °F 77.0 °F 74% 29.98 in 10.0 mi Variable 4.6 mph - N/A   Clear
9:58 AM 89.1 °F 101.4 °F 77.0 °F 67% 29.98 in 10.0 mi Variable 5.8 mph - N/A   Clear
1:24 PM 95.0 °F 111.4 °F 78.1 °F 58% 29.96 in 10.0 mi NW 9.2 mph - N/A   Scattered Clouds
1:58 PM 93.9 °F 108.4 °F 77.0 °F 58% 29.93 in 10.0 mi WNW 6.9 mph - N/A   Scattered Clouds
2:58 PM 95.0 °F 109.7 °F 77.0 °F 56% 29.91 in 10.0 mi West 6.9 mph - N/A   Partly Cloudy
4:58 PM 89.1 °F 100.2 °F 75.9 °F 65% 29.92 in 10.0 mi West 12.7 mph - N/A   Mostly Cloudy
5:17 PM 88.0 °F 97.5 °F 75.0 °F 65% 29.94 in 10.0 mi WNW 5.8 mph - N/A Thunderstorm Partly Cloudy
5:24 PM 88.0 °F 97.5 °F 75.0 °F 65% 29.94 in 10.0 mi WNW 10.4 mph - N/A Thunderstorm Thunderstorm
5:39 PM 88.0 °F 97.5 °F 75.0 °F 65% 29.95 in 10.0 mi WNW 4.6 mph - N/A Thunderstorm Partly Cloudy
5:58 PM 88.0 °F 98.5 °F 75.9 °F 67% 29.95 in 10.0 mi SSW 4.6 mph - N/A Thunderstorm Partly Cloudy
6:05 PM 88.0 °F 98.5 °F 75.9 °F 67% 29.96 in 10.0 mi SW 4.6 mph - N/A   Clear
6:58 PM 86.0 °F 95.1 °F 75.0 °F 70% 29.96 in 10.0 mi ESE 5.8 mph - N/A   Scattered Clouds
7:58 PM 82.0 °F 88.6 °F 75.0 °F 79% 29.95 in 10.0 mi SSW 3.5 mph - N/A   Clear
8:58 PM 80.1 °F 85.1 °F 75.0 °F 85% 29.94 in 10.0 mi Calm Calm - N/A   Clear
9:58 PM 80.1 °F 85.1 °F 75.0 °F 85% 29.94 in 10.0 mi WSW 5.8 mph - N/A   Clear
10:58 PM 80.1 °F 85.1 °F 75.0 °F 85% 29.96 in 10.0 mi South 5.8 mph - N/A   Clear
11:58 PM 78.1 °F - 73.9 °F 87% 29.96 in 10.0 mi South 4.6 mph - N/A   Clear